To NAV CANADA Home Page Login to a new session Search on AWWS site Feedback and Comments Disclaimer Vers la page française équivalente Tips FAQ What's new on the site To the Forecasts and Observations / NOTAM section To "File a Flight Plan" website Publications and other links Update of the User's profile FIC Telephone Numbers My Weather Data Folder Route Weather Data Regional Weather Data Local Weather Data To the Forecasts and Observations / NOTAM section
Request Generated 05/24/2016 at 05:57:29 UTC . Weather information available at that time is displayed.

METAR/TAF

PANGNIRTUNG/NU    (show WxCam)

LWIS CYXP 240500Z AUTO 11008KT 060V140 01/M06 A2946=
LWIS CYXP 240400Z AUTO 10013KT 050V110 02/M06 A2946=
LWIS CYXP 240300Z AUTO 09012G23KT 050V140 02/M06 A2945=

*** REMARK        : Forecast period has ended; this was the last TAF issued
*** REMARQUE : La période de prévision est échue; ceci était le dernier TAF qui a été émis
TAF CYXP 231838Z 2319/2322 10012G22KT 1/2SM SN VV006 TEMPO 2319/2322
2SM -SN OVC010
RMK NXT FCST WILL BE ISSUED AT 241245Z=
Your time UTC time
Weather data provided by Environment Canada and NAV CANADA